"Pseudo-MPEC" for CEP97D2

Created 2026 Jun 5 22:35:02 UT using Find_Orb

Click here for an explanation of pseudo-MPECs

 
 Astrometry: 
     CEP97D2*1C2026 06 05.14468712 53 54.384+38 17 08.09   ~6545 17.66GVNEOCPG96
     CEP97D2 1C2026 06 05.14993212 53 35.250+38 19 03.30   ~6545       VNEOCPG96
     CEP97D2 1C2026 06 05.15516312 53 16.180+38 20 59.30   ~6545       VNEOCPG96
     CEP97D2 1C2026 06 05.16038212 52 57.230+38 22 54.10   ~6545       VNEOCPG96
     CEP97D2 1C2026 06 05.19522812 50 51.760+38 35 07.84   ~654o 18.38GVNEOCPI52
     CEP97D2 1C2026 06 05.19539912 50 51.166+38 35 11.08   ~654o 17.55GVNEOCPI52
     CEP97D2 1C2026 06 05.19556812 50 50.554+38 35 14.60   ~654o 17.63GVNEOCPI52
     CEP97D2 1C2026 06 05.19573812 50 49.960+38 35 18.10   ~6555 19.07GVNEOCPI52
     CEP97D2 1C2026 06 05.29358112 45 18.702+39 05 21.05   ~657K 19.27GVNEOCPI52
     CEP97D2 1C2026 06 05.29375112 45 18.191+39 05 23.60   ~657K 18.12GVNEOCPI52
     CEP97D2 1C2026 06 05.29392112 45 17.636+39 05 26.34   ~657K 19.19GVNEOCPI52
     CEP97D2 KB2026 06 05.81286012 23 13.008+41 23 14.10   ~65KK 18.8 GXNEOCPL76
     CEP97D2 KB2026 06 05.82014012 22 54.247+41 24 35.53   ~65KK 19.0 GXNEOCPL76
     CEP97D2 KB2026 06 05.82741912 22 35.734+41 25 56.17   ~65KK       XNEOCPL76
     CEP97D2 KB2026 06 05.84552212 22 06.45 +41 30 16.7    ~65L5 19.1 GVNEOCPG02
     CEP97D2 KB2026 06 05.85012412 21 54.65 +41 31 08.2    ~65L5 18.8 GVNEOCPG02
     CEP97D2 KB2026 06 05.85491012 21 42.45 +41 32 01.4    ~65L5 18.9 GVNEOCPG02

Station data:
(G02) KYSUCE Observatory, Kysucke Nove Mesto  (N49.307313 E18.765390)
   Slovakia.  Observer M. Urbanik. 0.40-m f/4.4 reflector + CCD.
(G96) Mt. Lemmon Survey  (N32.442729 W110.788720)
   US/Arizona.  Observer E. J. Christensen. Measurers T. Beuden, V. F.
   Carvajal, D. Fay, J. B. Fazekas, D. C. Fuls, A. R. Gibbs, A. D. Grauer, H.
   Gröller, J. K. Hogan, R. A. Kowalski, S. M. Larson, G. J. Leonard, D.
   Rankin, R. L. Seaman, F. C. Shelly, K. W. Wierzchoś. 1.5-m reflector + 10K
   CCD.
(I52) Steward Observatory, Mt. Lemmon Station  (N32.442570 W110.788920)
   US/Arizona. Measurers T. Beuden, V. F. Carvajal, D. Fay, J. B. Fazekas, D.
   C. Fuls, A. R. Gibbs, A. D. Grauer, H. Gröller, J. K. Hogan, R. A.
   Kowalski, S. M. Larson, G. J. Leonard, D. Rankin, R. L. Seaman, F. C.
   Shelly, K. W. Wierzchoś. 1.0-m prime focus + CCD.
(L76) Nomad Observatory, Kochevanchik  (N46.976193 E39.651610)  Russia.
   Observer E. Romas. 0.2-m f/5 reflector + CCD.

Orbital elements:  CEP97D2
   Perihelion 2026 Oct 1.334137 +/- 0.0458 TT =  8:01:09.4 (JD 2461314.834137)
Epoch 2026 Jun  6.0 TT = JDT 2461197.5   Earth MOID: 0.0040   Ve: 0.0891
M 204.450141031 +/- 0.011           (J2000 ecliptic)             AutoNEOCP
n   1.325699939 +/- 0.000504        Peri.  168.072400 +/- 0.008
a   0.820677559 +/- 0.000208        Node   251.217554 +/- 0.0027
e   0.25074876 +/- 0.000325         Incl.    6.372205 +/- 0.012
P   0.743/271.550d         H 26.14  G  0.15   U  7.6
q 0.614893673 +/- 0.000423    Q 1.026461445 +/- 1.33e-5
From 17 observations 2026 June 5 (17.0 hr); mean residual 0".54
Residuals in arcseconds: 
260605 G96  1.6-  1.4+    260605 I52  .45+  .06+    260605 L76  .52-  .11-    
260605 G96  .50-  .80-    260605 I52  .56+  .11+    260605 L76  .17-  .23+    
260605 G96  .19+  .66-    260605 I52  .47-  .27+    260605 G02  .44+  .41+    
260605 G96  1.1+  .24-    260605 I52  .10-  .03-    260605 G02  .08+  .07-    
260605 I52  .43+  .20+    260605 I52  .24-  .14-    260605 G02  .08-  .42-    
260605 I52  .58+  .03-    260605 L76  .25+  .07-    

Ephemerides (geocentric):
Date (UTC) HH   RA             Dec           delta  r     elong  mag " sig PA
---- --------  ------------   ------------  ------ ------ -----  --- --------
2026 06 05 23  12 18 23.285   +41 55 53.50  .01004 1.0146  89.4 19.4 .446  11
2026 06 06 00  12 16 53.827   +42 03 46.11  .01016 1.0145  89.0 19.4 .515 175
2026 06 06 01  12 15 25.993   +42 11 24.01  .01027 1.0145  88.7 19.4 .616 163
2026 06 06 02  12 13 59.744   +42 18 47.77  .01038 1.0144  88.4 19.5 .740 154
2026 06 06 03  12 12 35.044   +42 25 57.93  .01050 1.0143  88.1 19.5 .880 148
2026 06 06 04  12 11 11.858   +42 32 55.01  .01061 1.0143  87.8 19.5 1.03 143
2026 06 06 05  12 09 50.152   +42 39 39.49  .01073 1.0142  87.5 19.6 1.19 139
2026 06 06 06  12 08 29.890   +42 46 11.85  .01084 1.0142  87.2 19.6 1.36 136
2026 06 06 07  12 07 11.040   +42 52 32.54  .01096 1.0141  86.9 19.7 1.54 134
2026 06 06 08  12 05 53.569   +42 58 42.00  .01107 1.0141  86.6 19.7 1.72 132
2026 06 06 09  12 04 37.447   +43 04 40.63  .01119 1.0140  86.3 19.7 1.90 130
2026 06 06 10  12 03 22.642   +43 10 28.83  .01131 1.0140  86.0 19.8 2.09 129
2026 06 06 11  12 02 09.125   +43 16 06.98  .01142 1.0139  85.7 19.8 2.28 127
2026 06 06 12  12 00 56.865   +43 21 35.45  .01154 1.0139  85.5 19.8 2.48 126
2026 06 06 13  11 59 45.836   +43 26 54.58  .01166 1.0138  85.2 19.9 2.67 125
2026 06 06 14  11 58 36.008   +43 32 04.70  .01177 1.0137  85.0 19.9 2.87 124
2026 06 06 15  11 57 27.355   +43 37 06.13  .01189 1.0137  84.7 19.9 3.07 124
2026 06 06 16  11 56 19.850   +43 41 59.19  .01201 1.0136  84.5 20.0 3.28 123
2026 06 06 17  11 55 13.468   +43 46 44.15  .01212 1.0136  84.2 20.0 3.48 122
2026 06 06 18  11 54 08.183   +43 51 21.31  .01224 1.0135  84.0 20.0 3.69 121
2026 06 06 19  11 53 03.971   +43 55 50.93  .01236 1.0135  83.7 20.1 3.89 121
2026 06 06 20  11 52 00.809   +44 00 13.28  .01248 1.0134  83.5 20.1 4.10 120
2026 06 06 21  11 50 58.672   +44 04 28.59  .01259 1.0133  83.3 20.1 4.31 120
2026 06 06 22  11 49 57.539   +44 08 37.11  .01271 1.0133  83.0 20.1 4.52 119
2026 06 06 23  11 48 57.387   +44 12 39.07  .01283 1.0132  82.8 20.2 4.73 119
2026 06 07 00  11 47 58.195   +44 16 34.69  .01295 1.0132  82.6 20.2 4.93 118
2026 06 07 01  11 46 59.941   +44 20 24.17  .01307 1.0131  82.4 20.2 5.14 118
2026 06 07 02  11 46 02.606   +44 24 07.72  .01318 1.0131  82.2 20.3 5.35 118
2026 06 07 03  11 45 06.169   +44 27 45.53  .01330 1.0130  82.0 20.3 5.56 117
2026 06 07 04  11 44 10.612   +44 31 17.80  .01342 1.0130  81.8 20.3 5.77 117
2026 06 07 05  11 43 15.914   +44 34 44.69  .01354 1.0129  81.6 20.3 5.98 116
2026 06 07 06  11 42 22.058   +44 38 06.39  .01366 1.0128  81.4 20.4 6.18 116
2026 06 07 07  11 41 29.026   +44 41 23.06  .01378 1.0128  81.2 20.4 6.39 116
2026 06 07 08  11 40 36.800   +44 44 34.85  .01390 1.0127  81.0 20.4 6.60 116
2026 06 07 09  11 39 45.364   +44 47 41.93  .01402 1.0127  80.8 20.5 6.80 115
2026 06 07 10  11 38 54.699   +44 50 44.44  .01414 1.0126  80.6 20.5 7.01 115
2026 06 07 11  11 38 04.792   +44 53 42.52  .01426 1.0125  80.4 20.5 7.21 115
2026 06 07 12  11 37 15.625   +44 56 36.32  .01437 1.0125  80.2 20.5 7.42 114
2026 06 07 13  11 36 27.183   +44 59 25.95  .01449 1.0124  80.0 20.6 7.62 114
2026 06 07 14  11 35 39.451   +45 02 11.56  .01461 1.0124  79.9 20.6 7.82 114
2026 06 07 15  11 34 52.414   +45 04 53.25  .01473 1.0123  79.7 20.6 8.02 114
2026 06 07 16  11 34 06.059   +45 07 31.16  .01485 1.0123  79.5 20.6 8.22 113
2026 06 07 17  11 33 20.371   +45 10 05.39  .01497 1.0122  79.3 20.7 8.42 113
2026 06 07 18  11 32 35.337   +45 12 36.05  .01509 1.0121  79.2 20.7 8.62 113
2026 06 07 19  11 31 50.943   +45 15 03.25  .01521 1.0121  79.0 20.7 8.81 113
2026 06 07 20  11 31 07.177   +45 17 27.09  .01533 1.0120  78.8 20.7 9.01 113
2026 06 07 21  11 30 24.026   +45 19 47.66  .01545 1.0120  78.7 20.8 9.20 112
2026 06 07 22  11 29 41.477   +45 22 05.08  .01557 1.0119  78.5 20.8 9.39 112